[[{"header":{"parameterUnit":"m.s-1","parameterCategory":1,"la1":30.2991,"la2":30.254,"lo1":-89.0895,"lo2":-89.0444,"dy":0.0017,"dx":0.0017,"nx":28,"ny":28,"refTime":"2025-04-04T03:00:00:Z","depth":0,"parameterNumber":2,"parameterNumberName":"U-component_of_WINDS"},"data":[0,0,0,0,0,0,0,0,0,0,0,0,0,0,0,0,0,0,0,0,0,0,0,0,0,0,0,0,0,0,0,0,0,0,0,0,0,0,0,0,0,0,0,0,0,0,0,0,0,0,0,0,0,0,0,0,0,0,-5.4951,-5.4952,0,-5.5091,-5.5093,-5.5094,-5.5108,-5.5107,-5.5106,-5.5104,-5.5244,-5.5249,-5.5254,0,0,0,0,0,0,0,0,0,0,0,0,0,-5.4692,-5.4696,-5.495,-5.4952,-5.4954,-5.5091,-5.5093,-5.5095,-5.5109,-5.5107,-5.5105,-5.5104,-5.5243,-5.5249,-5.5255,0,0,0,0,0,0,0,0,0,0,0,0,0,-5.4815,-5.4698,-5.495,-5.4978,-5.4981,-5.509,-5.5093,-5.5095,-5.5109,-5.5107,-5.5105,-5.5103,-5.5241,-5.5248,-5.5256,-5.5346,0,0,-5.5279,-5.5282,0,0,0,0,0,0,0,0,-5.4808,-5.4825,-5.4972,-5.4976,-5.498,-5.508,-5.5053,-5.5179,-5.511,-5.506,-5.5104,-5.5102,-5.5191,-5.5203,-5.5234,-5.5352,-5.5358,-5.528,-5.5284,-5.5288,-5.529,0,0,0,0,0,0,0,-5.48,-5.4819,-5.5006,-5.4974,-5.4979,-5.4982,-5.4997,-5.5077,-5.5136,-5.5065,-5.5066,-5.5083,-5.5193,-5.5226,-5.5237,-5.536,-5.5279,-5.5286,-5.5291,-5.5294,-5.5559,-5.5562,0,0,0,0,0,0,-5.4786,-5.4811,-5.5001,-5.501,-5.4887,-5.4988,-5.5005,-5.505,-5.5135,-5.5146,-5.5084,-5.5083,-5.5214,-5.5228,-5.5242,-5.5352,-5.5287,-5.5295,-5.5299,-5.5557,-5.556,-5.5563,0,0,0,0,0,0,-5.4781,-5.4803,-5.4996,-5.4911,-5.4936,-5.4995,-5.5045,-5.5054,-5.5087,-5.515,-5.5161,-5.5107,-5.5213,-5.5231,-5.532,-5.5357,-5.5298,-5.5305,-5.5554,-5.5558,-5.5561,-5.5573,0,0,0,0,0,0,-5.4773,-5.4801,-5.4836,-5.4912,-5.4941,-5.5072,-5.5048,-5.5058,-5.5101,-5.51,-5.5175,-5.5185,-5.5213,-5.5309,-5.5328,-5.5366,-5.5311,-5.5551,-5.5556,-5.556,-5.5569,-5.5576,-5.5582,0,0,0,0,0,-5.4764,-5.4833,-5.4838,-5.4861,-5.4986,-5.5074,-5.509,-5.5122,-5.5104,-5.5139,-5.518,-5.5183,-5.5351,-5.5318,-5.5339,-5.5381,-5.5548,-5.5554,-5.556,-5.5566,-5.5575,-5.5582,0,0,0,0,0,0,-5.4759,-5.4844,-5.485,-5.4946,-5.5003,-5.5076,-5.5122,-5.513,-5.5193,-5.5189,-5.5225,-5.5242,-5.5329,-5.5364,-5.5326,-5.5472,-5.5448,-5.5458,-5.5445,-5.5454,-5.5461,-5.5449,-5.5317,0,0,0,0,0,-5.4769,-5.4835,-5.4905,-5.4983,-5.5012,-5.5062,-5.5101,-5.5121,-5.5181,-5.5205,-5.5252,-5.5309,-5.5375,-5.5417,-5.5481,-5.5576,-5.5591,-5.5615,-5.5622,-5.5627,-5.5634,-5.5686,-5.5696,-5.5581,-5.5581,-5.5581,0,0,-5.479,-5.4845,-5.4884,-5.4984,-5.503,-5.5095,-5.5082,-5.5152,-5.5201,-5.5215,-5.5301,-5.5338,-5.5404,-5.5496,-5.5539,-5.5528,-5.567,-5.5634,-5.5638,-5.5642,-5.5692,-5.5703,-5.5713,-5.5585,-5.5584,-5.5583,0,0,-5.4862,-5.4911,-5.4981,-5.5028,-5.5099,-5.5133,-5.515,-5.5223,-5.5248,-5.5336,-5.5348,-5.5406,-5.5519,-5.5565,-5.5603,-5.5695,-5.5699,-5.5715,-5.5748,-5.5798,-5.5807,-5.5815,-5.5845,-5.5856,-5.5723,-5.5723,-5.5723,0,-5.4879,-5.498,-5.5015,-5.5086,-5.5128,-5.5147,-5.5217,-5.5261,-5.5349,-5.5377,-5.5365,-5.5507,-5.5553,-5.5655,-5.5677,-5.5709,-5.5728,-5.5705,-5.5803,-5.5812,-5.582,-5.5849,-5.5861,-5.5724,-5.5724,-5.5724,-5.5724,0,-5.4996,-5.5066,-5.5113,-5.5199,-5.5248,-5.5317,-5.5363,-5.5408,-5.5424,-5.5459,-5.5547,-5.5604,-5.5679,-5.5706,-5.5722,-5.581,-5.5801,-5.5796,-5.5771,-5.5831,-5.5859,-5.5871,-5.5726,-5.5725,-5.5725,-5.5725,0,0,-5.5065,-5.5171,-5.5188,-5.5226,-5.5307,-5.5361,-5.5432,-5.5507,-5.5544,-5.5605,-5.5663,-5.576,-5.5755,-5.5799,-5.5821,-5.5865,-5.5932,-5.5854,-5.5856,-5.5864,-5.603,-5.6031,-5.6044,-5.5937,-5.5939,-5.5941,-5.6024,0,-5.5144,-5.5271,-5.5306,-5.5412,-5.5476,-5.5496,-5.5558,-5.5613,-5.5648,-5.5707,-5.5745,-5.5811,-5.5802,-5.5828,-5.5873,-5.5914,-5.5965,-5.5909,-5.5989,-5.5992,-5.5969,-5.6059,-5.6061,-5.6136,-5.6035,-5.6037,-5.6039,0,-5.5252,-5.5316,-5.5429,-5.5502,-5.553,-5.5585,-5.5656,-5.5713,-5.5776,-5.5798,-5.5848,-5.5867,-5.594,-5.5915,-5.6015,-5.5976,-5.6012,-5.6037,-5.6041,-5.6047,-5.6016,-5.6065,-5.6161,-5.6171,-5.6057,-5.6055,-5.6054,0,-5.5287,-5.5402,-5.5485,-5.5518,-5.5605,-5.5643,-5.5681,-5.5743,-5.5786,-5.5849,-5.5876,-5.5947,-5.5984,-5.6038,-5.6074,-5.6053,-5.6172,-5.6149,-5.619,-5.6189,-5.6211,-5.6209,-5.6312,-5.624,-5.6239,-5.6239,-5.6239,0,-5.537,-5.5438,-5.5502,-5.5552,-5.5629,-5.5669,-5.5744,-5.5782,-5.5837,-5.5895,-5.5917,-5.597,-5.6017,-5.6076,-5.6106,-5.6184,-5.6201,-5.622,-5.6226,-5.6216,-5.6213,-5.6237,-5.6232,-5.6242,-5.6242,-5.6241,-5.624,0,-5.5421,-5.5467,-5.5558,-5.5634,-5.5655,-5.5708,-5.5773,-5.5822,-5.5859,-5.5931,-5.595,-5.6007,-5.6078,-5.6121,-5.6211,-5.6231,-5.6316,-5.6322,-5.6295,-5.6297,-5.6334,-5.6329,-5.6454,-5.6471,-5.639,-5.6391,-5.6391,0,-5.5469,-5.5522,-5.5604,-5.5645,-5.5684,-5.5749,-5.5793,-5.5836,-5.5881,-5.5958,-5.5997,-5.607,-5.613,-5.6243,-5.6292,-5.6361,-5.6366,-5.6406,-5.6377,-5.6365,-5.6364,-5.6359,-5.6364,-5.6409,-5.641,-5.641,-5.6411,0,-5.5548,-5.5569,-5.5632,-5.5704,-5.5757,-5.5815,-5.5873,-5.5905,-5.5957,-5.6007,-5.608,-5.6127,-5.622,-5.6291,-5.6365,-5.6403,-5.6415,-5.642,-5.6433,-5.6421,-5.6402,-5.641,-5.6305,-5.6416,-5.6416,-5.6415,-5.6415,-5.6415,-5.5597,-5.5645,-5.571,-5.5781,-5.5829,-5.5883,-5.5933,-5.5977,-5.6039,-5.6118,-5.614,-5.6217,-5.6279,-5.6379,-5.642,-5.6479,-5.6473,-5.6492,-5.6496,-5.6499,-5.6499,-5.6396,-5.6493,-5.6493,-5.6493,-5.6493,-5.6493,0,-5.5675,-5.5719,-5.5784,-5.5865,-5.592,-5.5929,-5.5994,-5.6039,-5.6107,-5.6165,-5.6224,-5.6309,-5.6379,-5.6434,-5.6505,-5.6543,-5.655,-5.656,-5.6556,-5.6564,-5.6502,-5.6482,-5.6553,-5.6553,-5.6553,-5.6553,-5.6552,-5.6552,-5.5722,-5.5803,-5.5831,-5.5936,-5.598,-5.6056,-5.6092,-5.6141,-5.6188,-5.6282,-5.634,-5.6377,-5.6433,-5.6509,-5.6574,-5.6588,-5.6612,-5.662,-5.6635,-5.6575,-5.6568,-5.6562,-5.6544,-5.6626,-5.6626,-5.6692,-5.6693,-5.6694]},{"header":{"parameterUnit":"m.s-1","parameterCategory":1,"la1":30.2991,"la2":30.254,"lo1":-89.0895,"lo2":-89.0444,"dy":0.0017,"dx":0.0017,"nx":28,"ny":28,"refTime":"2025-04-04T03:00:00:Z","depth":0,"parameterNumber":3,"parameterNumberName":"V-component_of_WINDS"},"data":[0,0,0,0,0,0,0,0,0,0,0,0,0,0,0,0,0,0,0,0,0,0,0,0,0,0,0,0,0,0,0,0,0,0,0,0,0,0,0,0,0,0,0,0,0,0,0,0,0,0,0,0,0,0,0,0,0,0,4.2139,4.214,0,4.2222,4.2223,4.2224,4.2246,4.2245,4.2245,4.2244,4.2324,4.2327,4.233,0,0,0,0,0,0,0,0,0,0,0,0,0,4.1994,4.1996,4.2139,4.214,4.2141,4.2222,4.2223,4.2225,4.2246,4.2245,4.2244,4.2244,4.2324,4.2327,4.233,0,0,0,0,0,0,0,0,0,0,0,0,0,4.2065,4.1997,4.2138,4.2161,4.2164,4.2222,4.2223,4.2225,4.2246,4.2245,4.2244,4.2244,4.2323,4.2326,4.233,4.237,0,0,4.2342,4.2344,0,0,0,0,0,0,0,0,4.2061,4.207,4.2157,4.216,4.2163,4.2223,4.2202,4.2273,4.2246,4.2215,4.2244,4.2243,4.2291,4.2297,4.2315,4.2374,4.2377,4.2343,4.2345,4.2347,4.2348,0,0,0,0,0,0,0,4.2056,4.2067,4.2172,4.2158,4.2162,4.2166,4.2175,4.2215,4.2256,4.2217,4.2219,4.2229,4.2292,4.2311,4.2317,4.2378,4.2342,4.2346,4.2348,4.235,4.2476,4.2477,0,0,0,0,0,0,4.2048,4.2062,4.2169,4.2174,4.2109,4.2169,4.218,4.2204,4.2256,4.2263,4.223,4.223,4.2304,4.2312,4.232,4.2371,4.2347,4.235,4.2353,4.2475,4.2476,4.2478,0,0,0,0,0,0,4.2044,4.2057,4.2166,4.2119,4.2133,4.2173,4.22,4.2206,4.2225,4.2265,4.2272,4.2241,4.2304,4.2314,4.2358,4.2374,4.2352,4.2356,4.2474,4.2476,4.2477,4.2473,0,0,0,0,0,0,4.204,4.2056,4.2072,4.2119,4.2136,4.2204,4.2201,4.2209,4.2232,4.2233,4.2278,4.2284,4.2304,4.2352,4.2362,4.2379,4.2359,4.2473,4.2475,4.2477,4.2472,4.2474,4.2476,0,0,0,0,0,4.2035,4.2065,4.2072,4.2085,4.2157,4.2205,4.2214,4.2238,4.2233,4.225,4.2276,4.2283,4.2371,4.2357,4.2368,4.2386,4.2472,4.2474,4.2476,4.2471,4.2474,4.2476,0,0,0,0,0,0,4.2016,4.2072,4.208,4.2127,4.2162,4.2208,4.2229,4.224,4.2274,4.2273,4.23,4.231,4.2353,4.2374,4.2357,4.2428,4.2421,4.2426,4.2413,4.2416,4.2418,4.2413,4.2362,0,0,0,0,0,4.2018,4.2054,4.21,4.2137,4.2154,4.2189,4.221,4.2227,4.2262,4.2276,4.2305,4.2338,4.2374,4.2396,4.243,4.2475,4.2486,4.2494,4.2496,4.2497,4.2501,4.2528,4.2533,4.2485,4.2485,4.2485,0,0,4.2021,4.2056,4.2076,4.2134,4.2162,4.2198,4.22,4.2237,4.2264,4.2281,4.2325,4.2348,4.2387,4.2432,4.2453,4.2451,4.2517,4.25,4.2501,4.2504,4.2531,4.2535,4.2539,4.2486,4.2486,4.2486,0,0,4.2046,4.2075,4.2111,4.214,4.2184,4.2207,4.2216,4.2262,4.2278,4.2324,4.2338,4.2369,4.2429,4.2457,4.2479,4.2517,4.2525,4.2527,4.2538,4.2564,4.2568,4.2571,4.2586,4.2591,4.253,4.253,4.253,0,4.2043,4.2099,4.2127,4.2165,4.219,4.221,4.2246,4.2272,4.2324,4.234,4.2337,4.2415,4.2442,4.2495,4.2505,4.2521,4.2532,4.2522,4.2565,4.2569,4.2573,4.2587,4.2593,4.253,4.253,4.253,4.253,0,4.2096,4.2134,4.2157,4.221,4.2238,4.2274,4.2307,4.2332,4.2346,4.2369,4.2416,4.245,4.2493,4.2506,4.2519,4.2562,4.2559,4.256,4.2554,4.2577,4.2591,4.2597,4.2531,4.2531,4.253,4.253,0,0,4.2109,4.2179,4.2187,4.2213,4.2264,4.2293,4.2331,4.2375,4.2397,4.2432,4.2464,4.2516,4.2519,4.2543,4.256,4.2582,4.2613,4.2581,4.2582,4.2587,4.2663,4.2663,4.2669,4.2618,4.2619,4.262,4.266,0,4.2141,4.2211,4.2238,4.2295,4.2332,4.2352,4.2385,4.2419,4.2443,4.2476,4.2501,4.2538,4.2538,4.2553,4.2577,4.2604,4.2628,4.2601,4.2648,4.265,4.2639,4.2676,4.2675,4.2711,4.2666,4.2667,4.2667,0,4.2187,4.2226,4.2288,4.2337,4.2353,4.2382,4.2426,4.2458,4.2498,4.2514,4.2543,4.2559,4.2598,4.259,4.2645,4.2626,4.2647,4.2663,4.2665,4.2671,4.266,4.2683,4.2723,4.2729,4.2676,4.2675,4.2675,0,4.2193,4.2261,4.2307,4.2328,4.2385,4.2406,4.2431,4.247,4.2496,4.2533,4.255,4.2591,4.2614,4.2645,4.2671,4.2662,4.2725,4.2717,4.2739,4.2738,4.2751,4.275,4.2795,4.2763,4.2763,4.2763,4.2763,0,4.2226,4.2263,4.2311,4.2339,4.2381,4.2412,4.2452,4.2478,4.2513,4.2547,4.2566,4.2596,4.2629,4.2663,4.2684,4.2728,4.2737,4.275,4.2756,4.2749,4.2748,4.2764,4.2762,4.2764,4.2764,4.2764,4.2763,0,4.2239,4.2273,4.2325,4.2377,4.2391,4.2419,4.2463,4.2491,4.2516,4.2559,4.257,4.2609,4.2651,4.2681,4.2733,4.2747,4.2795,4.2799,4.2782,4.2785,4.2805,4.2803,4.2863,4.2873,4.2833,4.2833,4.2833,0,4.2259,4.2288,4.2344,4.2369,4.2395,4.2434,4.2461,4.2493,4.252,4.2569,4.2591,4.2635,4.2672,4.2738,4.277,4.2812,4.2818,4.2836,4.2824,4.2817,4.2819,4.2818,4.2822,4.2838,4.2838,4.2838,4.2838,0,4.229,4.2306,4.2346,4.2392,4.2425,4.2462,4.2499,4.2518,4.2556,4.2585,4.263,4.2659,4.2715,4.2759,4.2804,4.2828,4.284,4.2842,4.2849,4.2844,4.2833,4.2841,4.2788,4.284,4.284,4.284,4.284,4.284,4.2308,4.2336,4.2381,4.2425,4.2457,4.2492,4.2522,4.2552,4.2591,4.2641,4.2656,4.2703,4.2743,4.2805,4.283,4.2867,4.2865,4.2875,4.2878,4.288,4.2881,4.2827,4.2874,4.2874,4.2874,4.2874,4.2874,0,4.2341,4.2372,4.2412,4.2466,4.2501,4.2511,4.2553,4.2581,4.2623,4.2661,4.2698,4.275,4.2793,4.2829,4.2874,4.2896,4.2902,4.2906,4.2905,4.2911,4.2879,4.2869,4.2901,4.2901,4.2901,4.29,4.29,4.29,4.2363,4.2412,4.2434,4.2499,4.2529,4.2576,4.26,4.2633,4.2663,4.2721,4.2758,4.2783,4.282,4.2868,4.2907,4.2917,4.2933,4.2936,4.2947,4.2916,4.2913,4.291,4.2901,4.2939,4.2939,4.2976,4.2976,4.2977]}]]